Location: Grantham
(50.0698°N, 112.0083°W)
Time: 01:31:49
(UTC+00:00)

ISS - Pass Details

Date: 07 December 2021
Orbit: 413 x 422 km, 51.6° (Epoch: 24 January)

Event Time Altitude Azimuth Distance (km) Brightness Sun altitude
Rises 00:36:02 0° 287° (WNW) 2,387 0.9 -10.6°
Reaches altitude 10° 00:38:12 10° 281° (W) 1,517 0.0 -10.9°
Maximum altitude 00:41:27 42° 209° (SSW) 617 -2.5 -11.4°
Drops below altitude 10° 00:44:39 10° 137° (SE) 1,504 -1.2 -11.8°
Enters shadow 00:46:22 - 131° (SE) 2,190 -0.4 -12.1°
